Weather History for Oconto, WI

Change the Weather History Date:

Sunday, October 6, 2013

  Actual Average Record
Temperature  
Mean Temperature 56 °F -  
Max Temperature 62 °F 61 °F 62 °F (2013)
Min Temperature 49 °F 38 °F 34 °F (2014)
Degree Days  
Heating Degree Days 10    
Growing Degree Days 6 (Base 50)    
Moisture  
Dew Point 49 °F    
Average Humidity 75    
Maximum Humidity 100    
Minimum Humidity 45    
Precipitation  
Precipitation 0.01 in - - ()
Sea Level Pressure  
Sea Level Pressure 29.66 in    
Wind  
Wind Speed 7 mph (WSW)    
Max Wind Speed 15 mph    
Max Gust Speed 21 mph    
Visibility 10 miles    
Events      
Averages and records for this station are not official NWS values.
T = Trace of Precipitation, MM = Missing Value Source: NWS Daily Summary

Daily Weather History Graph

Daily Weather History Graph

Search for Another Location

Airport:

Trip Planner

Search our weather history database for the weather conditions in past years. The results will help you decide how hot, cold, wet, or windy it might be!

Date:

Astronomy

Oct. 06, 2013 Rise Set
Actual Time 6:56 AM CDT 6:22 PM CDT
Civil Twilight 6:26 AM CDT 6:51 PM CDT
Nautical Twilight 5:52 AM CDT 7:25 PM CDT
Astronomical Twilight 5:18 AM CDT 7:59 PM CDT
Moon 8:46 AM CDT (10/6) 7:14 PM CDT (10/6)
Length of Visible Light 12h 24m
Length of Day
11h 26m
Waxing Crescent, 3% of the Moon is Illuminated
Oct 6
Waxing Crescent
Oct 11
First Quarter
Oct 18
Full
Oct 26
Last Quarter
Nov 3
New

Hourly Weather History & Observations

Time (CDT) Temp. Dew Point Humidity Pressure Visibility Wind Dir Wind Speed Gust Speed Precip Events Conditions
12:15 AM 61.7 °F 61.7 °F 100% 29.72 in 7.0 mi ESE 5.8 mph - N/A   Overcast
12:35 AM 62.1 °F 61.7 °F 99% 29.71 in 7.0 mi ESE 8.1 mph - N/A   Overcast
12:55 AM 62.6 °F 61.9 °F 97% 29.71 in 10.0 mi SE 5.8 mph - N/A   Overcast
1:15 AM 62.6 °F 61.9 °F 97% 29.71 in 10.0 mi SSE 5.8 mph - N/A   Overcast
1:35 AM 62.6 °F 61.9 °F 97% 29.71 in 10.0 mi SE 6.9 mph - N/A   Overcast
1:55 AM 62.6 °F 61.7 °F 97% 29.70 in 10.0 mi SSE 5.8 mph - N/A   Overcast
2:15 AM 62.6 °F 61.9 °F 97% 29.68 in 10.0 mi SSE 6.9 mph - N/A   Overcast
2:35 AM 62.2 °F 61.7 °F 98% 29.67 in 7.0 mi SSE 5.8 mph - N/A   Overcast
2:55 AM 62.2 °F 61.0 °F 96% 29.68 in 10.0 mi WSW 6.9 mph - N/A   Overcast
3:15 AM 61.7 °F 60.3 °F 95% 29.67 in 10.0 mi West 4.6 mph - N/A   Overcast
3:35 AM 61.0 °F 59.9 °F 96% 29.68 in 7.0 mi West 5.8 mph - N/A   Overcast
3:55 AM 60.1 °F 59.0 °F 96% 29.68 in 10.0 mi West 5.8 mph - N/A   Overcast
4:15 AM 59.4 °F 58.3 °F 96% 29.66 in 10.0 mi Calm Calm - N/A   Overcast
4:35 AM 59.0 °F 58.5 °F 98% 29.64 in 7.0 mi Calm Calm - N/A   Overcast
4:55 AM 58.5 °F 58.1 °F 99% 29.65 in 10.0 mi SW 4.6 mph - N/A   Overcast
5:15 AM 58.3 °F 57.7 °F 98% 29.66 in 10.0 mi SW 5.8 mph - N/A   Overcast
5:35 AM 58.1 °F 57.4 °F 97% 29.68 in 10.0 mi SW 5.8 mph - N/A   Overcast
5:55 AM 58.1 °F 57.2 °F 97% 29.68 in 10.0 mi SW 5.8 mph - N/A   Overcast
6:15 AM 57.7 °F 56.7 °F 96% 29.67 in 10.0 mi WSW 4.6 mph - 0.01 in   Overcast
6:35 AM 57.2 °F 55.9 °F 96% 29.67 in 10.0 mi West 5.8 mph - 0.01 in   Overcast
6:55 AM 56.5 °F 54.9 °F 94% 29.66 in 10.0 mi WSW 5.8 mph - 0.01 in   Overcast
7:15 AM 55.9 °F 54.5 °F 95% 29.66 in 10.0 mi West 4.6 mph - N/A   Overcast
7:35 AM 55.4 °F 53.8 °F 94% 29.68 in 10.0 mi WSW 8.1 mph - N/A   Overcast
7:55 AM 54.5 °F 52.2 °F 92% 29.68 in 10.0 mi WSW 6.9 mph - N/A   Overcast
8:15 AM 54.0 °F 52.2 °F 94% 29.69 in 10.0 mi WSW 9.2 mph - N/A   Overcast
8:35 AM 53.6 °F 51.4 °F 92% 29.69 in 10.0 mi WSW 8.1 mph - N/A   Overcast
8:55 AM 53.1 °F 50.4 °F 91% 29.68 in 10.0 mi West 11.5 mph - N/A   Overcast
9:15 AM 53.1 °F 50.9 °F 92% 29.68 in 10.0 mi West 8.1 mph - N/A   Overcast
9:35 AM 53.6 °F 50.9 °F 91% 29.68 in 10.0 mi West 6.9 mph - N/A   Overcast
9:55 AM 54.1 °F 50.5 °F 88% 29.68 in 10.0 mi West 11.5 mph - N/A   Overcast
10:15 AM 55.2 °F 50.2 °F 83% 29.68 in 10.0 mi West 5.8 mph - N/A   Overcast
10:35 AM 56.8 °F 49.5 °F 76% 29.68 in 10.0 mi West 9.2 mph - N/A   Mostly Cloudy
10:55 AM 57.2 °F 47.3 °F 69% 29.66 in 10.0 mi WNW 10.4 mph - N/A   Mostly Cloudy
11:15 AM 58.1 °F 48.7 °F 71% 29.67 in 10.0 mi West 9.2 mph - N/A   Scattered Clouds
11:35 AM 59.5 °F 47.8 °F 65% 29.67 in 10.0 mi West 12.7 mph - N/A   Clear
11:55 AM 60.3 °F 47.5 °F 63% 29.67 in 10.0 mi West 13.8 mph 17.3 mph N/A   Clear
12:15 PM 61.0 °F 47.7 °F 62% 29.67 in 10.0 mi West 11.5 mph - N/A   Scattered Clouds
12:35 PM 61.2 °F 47.3 °F 60% 29.67 in 10.0 mi West 11.5 mph 16.1 mph N/A   Scattered Clouds
12:55 PM 60.8 °F 46.2 °F 59% 29.66 in 10.0 mi West 15.0 mph 18.4 mph N/A   Scattered Clouds
1:15 PM 60.6 °F 44.8 °F 56% 29.65 in 10.0 mi West 11.5 mph 17.3 mph N/A   Scattered Clouds
1:35 PM 60.8 °F 42.4 °F 51% 29.65 in 10.0 mi West 13.8 mph 20.7 mph N/A   Clear
1:55 PM 61.5 °F 41.5 °F 48% 29.64 in 10.0 mi West 11.5 mph - N/A   Clear
2:15 PM 61.7 °F 41.4 °F 47% 29.65 in 10.0 mi West 11.5 mph - N/A   Clear
2:35 PM 61.9 °F 41.2 °F 47% 29.64 in 10.0 mi WSW 11.5 mph 16.1 mph N/A   Clear
2:55 PM 61.7 °F 40.5 °F 46% 29.64 in 10.0 mi West 12.7 mph 17.3 mph N/A   Clear
3:15 PM 61.7 °F 40.5 °F 46% 29.64 in 10.0 mi WSW 10.4 mph 17.3 mph N/A   Clear
3:35 PM 61.9 °F 40.6 °F 46% 29.63 in 10.0 mi SW 9.2 mph - N/A   Clear
3:55 PM 61.9 °F 40.5 °F 45% 29.64 in 10.0 mi WSW 6.9 mph - N/A   Clear
4:15 PM 61.5 °F 40.5 °F 46% 29.63 in 10.0 mi West 12.7 mph 16.1 mph N/A   Clear
4:35 PM 61.2 °F 39.9 °F 46% 29.63 in 10.0 mi West 12.7 mph - N/A   Clear
4:55 PM 60.8 °F 39.9 °F 46% 29.63 in 10.0 mi WSW 6.9 mph - N/A   Clear
5:15 PM 60.1 °F 41.0 °F 49% 29.63 in 10.0 mi SW 6.9 mph - N/A   Clear
5:35 PM 58.6 °F 40.5 °F 51% 29.63 in 10.0 mi WSW 6.9 mph - N/A   Clear
5:55 PM 55.9 °F 41.0 °F 57% 29.64 in 10.0 mi SW 3.5 mph - N/A   Clear
6:15 PM 54.1 °F 41.7 °F 63% 29.64 in 10.0 mi SW 3.5 mph - N/A   Clear
6:35 PM 52.3 °F 42.6 °F 69% 29.65 in 10.0 mi SSW 3.5 mph - N/A   Clear
6:55 PM 50.7 °F 42.1 °F 72% 29.65 in 10.0 mi SW 4.6 mph - N/A   Clear
7:15 PM 51.6 °F 41.5 °F 68% 29.66 in 10.0 mi WSW 6.9 mph - N/A   Scattered Clouds
7:35 PM 51.8 °F 41.2 °F 67% 29.66 in 10.0 mi WSW 5.8 mph - N/A   Scattered Clouds
7:55 PM 51.8 °F 41.0 °F 67% 29.66 in 10.0 mi WSW 6.9 mph - N/A   Mostly Cloudy
8:15 PM 52.2 °F 41.0 °F 66% 29.68 in 10.0 mi WSW 6.9 mph - N/A   Overcast
8:35 PM 52.9 °F 41.0 °F 64% 29.67 in 10.0 mi West 8.1 mph - N/A   Overcast
8:55 PM 52.9 °F 41.0 °F 64% 29.66 in 10.0 mi West 9.2 mph - N/A   Overcast
9:15 PM 52.2 °F 41.5 °F 67% 29.66 in 10.0 mi WSW 5.8 mph - N/A   Overcast
9:35 PM 51.8 °F 41.9 °F 69% 29.66 in 10.0 mi WSW 6.9 mph - N/A   Overcast
9:55 PM 51.8 °F 41.9 °F 69% 29.66 in 10.0 mi WSW 5.8 mph - N/A   Overcast
10:15 PM 52.0 °F 41.9 °F 69% 29.66 in 10.0 mi West 8.1 mph - N/A   Overcast
10:35 PM 51.6 °F 41.9 °F 69% 29.66 in 10.0 mi West 4.6 mph - N/A   Overcast
10:55 PM 51.3 °F 41.9 °F 70% 29.66 in 10.0 mi West 8.1 mph - N/A   Overcast
11:15 PM 50.7 °F 41.0 °F 69% 29.64 in 10.0 mi West 8.1 mph - N/A   Mostly Cloudy
11:35 PM 49.6 °F 41.0 °F 72% 29.65 in 10.0 mi WSW 6.9 mph - N/A   Mostly Cloudy
11:55 PM 49.8 °F 41.0 °F 72% 29.64 in 10.0 mi West 5.8 mph - N/A   Overcast